Weather Roundup
Issued by NWS Sterling, VA

Home | Current Version | Previous Version | Text Only | Print | Product List | Glossary On
Versions: 1 2 3 4 5 6 7 8 9 10 11 12 13 14 15 16 17 18 19 20 21 22 23 24 25 26 27 28 29 30 31 32 33 34 35 36 37 38 39 40 41 42 43 44 45 46 47 48 49 50
000
NZUS51 KLWX 240811
HRRLWX

HOURLY OBSERVATIONS AROUND THE LWX CWA
400 AM EDT THU MAY 24 2018

Note: "FAIR" indicates few or no clouds below 12,000 feet
with no significant weather and/or obstructions to visibility.

 * =Non NWS site. Station does not report significant weather
    and/or obstructions to visibility.

...DOWNTOWN AREAS...

CITY           SKY/WX    TMP DP  RH WIND       PRES   REMARKS
WASHINGTON NAT FAIR      65  58  78 E5        30.12R
MD SCIENCE CTR   N/A     68  56  65 MISG      30.09S


...WASHINGTON SUBURBS...

CITY           SKY/WX    TMP DP  RH WIND       PRES   REMARKS
DULLES         FAIR      59  57  93 NW3       30.13S
MANASSAS*      FAIR      56  56 100 CALM      30.14R
LEESBURG*      FAIR      61  59  94 CALM      30.14R
GAITHERSBURG*  FAIR      56  55  97 CALM      30.13S
FT BELVOIR     FAIR      57  56  97 CALM      30.12R
QUANTICO       FAIR      62  60  93 NW6       30.12S
ANDREWS AFB    FAIR      63  57  79 W6        30.11S
COLLEGE PARK*  FAIR      57  56  95 CALM      30.11R

...CENTRAL VIRGINIA...

CITY           SKY/WX    TMP DP  RH WIND       PRES   REMARKS
CULPEPER*      FAIR      60  55  83 NW5       30.14S
CHARLOTTESVILL FAIR      63  58  83 SW3       30.14S
WARRENTON*     FAIR      56  53  90 CALM      30.12F
ORANGE*        FAIR      55  54  94 CALM      30.14R
GORDONSVILLE*  FAIR      57  57 100 CALM      30.13S
STAFFORD*      FAIR      58  58 100 CALM      30.15F
FREDERICKSBRG* FAIR      61  58  91 CALM      30.12R
LOUISA*        FAIR      53  53  97 CALM      30.18S FOG
ASHLAND        FAIR      60  58  92 CALM      30.14R
RICHMOND       FAIR      64  58  80 N6        30.11S

...NORTHEAST/CENTRAL MARYLAND...

CITY           SKY/WX    TMP DP  RH WIND       PRES   REMARKS
BWI AIRPORT    FAIR      61  55  81 W6        30.09S
ANNAPOLIS        N/A    N/A N/A N/A MISG      30.09S
MARTIN AIRPORT FAIR      61  59  94 CALM      30.10S
WESTMINSTER*   FAIR      61  57  88 CALM      30.13S
FREDERICK*     FAIR      57  57 100 CALM      30.16R
FORT MEADE*    FAIR      54  54 100 CALM      30.13S

...SOUTHERN MARYLAND...

CITY           SKY/WX    TMP DP  RH WIND       PRES   REMARKS
PATUXENT RIVER FAIR      68  58  70 NW8       30.09S
ST MARYS CITY  FAIR      61  60  97 CALM      30.09S
LEONARDTOWN*   FAIR      59  55  88 W5        30.12R

...MARYLAND EASTERN SHORE...

CITY           SKY/WX    TMP DP  RH WIND       PRES   REMARKS
SALISBURY      FAIR      58  57  97 CALM      30.08R
CAMBRIDGE*     CLEAR     61  61 100 CALM      30.08S
OCEAN CITY     FAIR      62  58  86 NW5       30.07S
BAY BRIDGE AP* FAIR      66  59  77 CALM      30.09S
EASTON*        FAIR      63  60  91 NW3       30.12S

...SHENANDOAH VALLEY...

CITY           SKY/WX    TMP DP  RH WIND       PRES   REMARKS
MARTINSBURG    FAIR      54  53  97 CALM      30.14S
HAGERSTOWN APT FAIR      60  55  83 CALM      30.15S
STAUNTON*      FAIR      56  54  94 CALM      30.20S
WINCHESTER*    FAIR      54  52  94 CALM      30.18S
FRONT ROYAL*   FAIR      57  55  94 S6        30.16S
LURAY*         FAIR      55  54  94 CALM      30.18S FOG
NEW MARKET*    FAIR      54  53  96 CALM      30.17S
WAYNESBORO*    CLOUDY    60  58  93 CALM      30.19S

...APPALACHIANS...

CITY           SKY/WX    TMP DP  RH WIND       PRES   REMARKS
PETERSBURG WV*   N/A     53  52  98 CALM      30.21R FOG
CUMBERLAND*      N/A     54  54 100 CALM      30.23R VSB 1/2
OAKLAND*       FAIR      54  52  94 N3        30.24S
HOT SPRINGS*   CLOUDY    57  48  70 NE8       30.26S
ELKINS         FOG       54  52  93 SE3       30.24S VSB 3/4
BEDFORD PA*    FAIR      49  48  97 CALM      30.19S FOG
JOHNSTOWN      FAIR      55  50  83 SW3       30.21S
ALTOONA        FAIR      60  50  69 CALM      30.19S

...SOUTHERN PENNSYLVANIA/DELAWARE...

CITY           SKY/WX    TMP DP  RH WIND       PRES   REMARKS
YORK           FAIR      55  54  96 CALM      30.12R
WILMINGTON     FAIR      60  56  86 MISG      30.08S

...MARINE OBSERVATIONS...

STATION/POSITION TIME  TEMP    WIND        PRES
                       AIR SEA DIR/SP/G
                 (UTC) (F)     (DEG/KT/KT) (MB)
THOMAS PT LIGHT  0800   67 69  300/ 10/ 11 1019.8S
COVE POINT       0742   67     320/  7/  9 1019.4F
BALT KEY BRIDGE  0748   67     280/  8/  9 1018.7F
LEWISETTA        0748   67 76  290/  4/  5 1019.2R
SOLOMONS ISLAND  0748   67 71  310/  3/  5 1018.9R
PINEY POINT      0748          330/ 11/ 13   N/A





USA.gov is the U.S. government's official web portal to all federal, state and local government web resources and services.